FW1691 Weather Reports


Display with metric or nautical units.
time (UTC)temp
F
wind
direction
speed
MPH
gust
MPH
rain 1hr
in
rain 24hr
in
rain mn
in
humidity
%
barometer
mb
20260507121015 37 285 2.0 3.0 0.00 0.00 0.00 73 1013.2
20260507120515 36 285 0.0 2.0 0.00 0.00 0.00 72 1013.1
20260507120035 36 0 0.0 2.0 0.00 0.00 0.00 71 1013.1
20260507115515 36 0 0.0 2.0 0.00 0.00 0.00 70 1013.1
20260507115013 36 285 1.0 3.0 0.00 0.00 0.00 70 1013.1
20260507114537 36 285 0.0 4.0 0.00 0.00 0.00 70 1013.1
20260507114014 36 285 2.0 4.0 0.00 0.00 0.00 69 1013.0
20260507113513 36 285 2.0 4.0 0.00 0.00 0.00 70 1013.0
20260507113036 36 285 2.0 3.0 0.00 0.00 0.00 70 1013.0
20260507112514 36 287 1.0 3.0 0.00 0.00 0.00 70 1012.9
20260507112018 36 287 2.0 3.0 0.00 0.00 0.00 70 1012.9
20260507111532 36 287 1.0 4.0 0.00 0.00 0.00 70 1012.8
20260507111013 36 311 1.0 4.0 0.00 0.00 0.00 70 1012.9
20260507110513 36 311 1.0 4.0 0.00 0.00 0.00 69 1012.9
20260507110039 36 311 1.0 3.0 0.00 0.00 0.00 70 1012.8
20260507105514 36 311 0.0 3.0 0.00 0.00 0.00 70 1012.8
20260507105015 36 0 0.0 3.0 0.00 0.00 0.00 71 1012.8
20260507104534 36 0 1.0 3.0 0.00 0.00 0.00 71 1012.8
20260507104014 35 311 0.0 2.0 0.00 0.00 0.00 71 1012.8
20260507103513 36 0 0.0 2.0 0.00 0.00 0.00 71 1012.7
20260507103039 36 311 0.0 2.0 0.00 0.00 0.00 72 1012.8
20260507102515 36 0 0.0 1.0 0.00 0.00 0.00 72 1012.8
20260507102017 36 0 0.0 2.0 0.00 0.00 0.00 72 1012.9
20260507101538 36 0 0.0 2.0 0.00 0.00 0.00 72 1012.9
20260507101015 36 0 0.0 1.0 0.00 0.00 0.00 73 1012.8
20260507100514 36 0 0.0 1.0 0.00 0.00 0.00 73 1012.9
20260507100036 36 0 0.0 1.0 0.00 0.00 0.00 73 1012.9
20260507095516 36 0 0.0 2.0 0.00 0.00 0.00 73 1013.0
20260507095014 36 0 0.0 2.0 0.00 0.00 0.00 73 1013.0
20260507094537 36 311 0.0 2.0 0.00 0.00 0.00 73 1013.0
20260507094020 35 0 1.0 2.0 0.00 0.00 0.00 73 1013.1
20260507093515 35 0 0.0 1.0 0.00 0.00 0.00 74 1013.1
20260507093032 35 311 0.0 1.0 0.00 0.00 0.00 74 1013.0
20260507092513 36 0 0.0 2.0 0.00 0.00 0.00 73 1013.2
20260507092013 36 0 0.0 2.0 0.00 0.00 0.00 73 1013.1
20260507091535 36 0 0.0 2.0 0.00 0.00 0.00 72 1013.0
20260507091015 36 0 0.0 2.0 0.00 0.00 0.00 72 1013.0
20260507090513 36 0 0.0 3.0 0.00 0.00 0.00 71 1013.0
20260507090030 36 0 0.0 3.0 0.00 0.00 0.00 71 1013.1
20260507085515 37 311 0.0 3.0 0.00 0.00 0.00 71 1013.2
20260507085013 37 0 1.0 3.0 0.00 0.00 0.00 71 1013.2
20260507084538 37 311 0.0 2.0 0.00 0.00 0.00 71 1013.3
20260507084012 37 0 1.0 3.0 0.00 0.00 0.00 71 1013.2
20260507083516 37 311 1.0 3.0 0.00 0.00 0.00 72 1013.3
20260507083032 37 311 0.0 3.0 0.00 0.00 0.00 71 1013.3
20260507082514 37 311 1.0 3.0 0.00 0.00 0.00 71 1013.3
20260507082014 37 311 1.0 3.0 0.00 0.00 0.00 72 1013.3
20260507081538 37 311 1.0 3.0 0.00 0.00 0.00 72 1013.3
20260507081013 37 311 1.0 3.0 0.00 0.00 0.00 72 1013.2
20260507080514 37 311 2.0 3.0 0.00 0.00 0.00 72 1013.3
20260507080032 37 311 1.0 2.0 0.00 0.00 0.00 71 1013.2
20260507075515 37 0 0.0 2.0 0.00 0.00 0.00 70 1013.3
20260507075014 37 311 1.0 2.0 0.00 0.00 0.00 70 1013.3
20260507074534 37 311 1.0 2.0 0.00 0.00 0.00 70 1013.3
20260507074013 37 311 1.0 3.0 0.00 0.00 0.00 70 1013.3
20260507073515 38 311 1.0 4.0 0.00 0.00 0.00 70 1013.3
20260507073032 38 311 1.0 4.0 0.00 0.00 0.00 70 1013.4
20260507072513 38 311 2.0 4.0 0.00 0.00 0.00 69 1013.5
20260507072013 38 311 2.0 4.0 0.00 0.00 0.00 69 1013.5
20260507071535 38 311 2.0 4.0 0.00 0.00 0.00 70 1013.6
20260507071013 38 311 2.0 4.0 0.00 0.00 0.00 69 1013.7
20260507070515 38 312 1.0 3.0 0.00 0.00 0.00 69 1013.5
20260507070045 38 312 1.0 4.0 0.00 0.00 0.00 68 1013.8
20260507065514 38 312 2.0 4.0 0.00 0.00 0.00 69 1013.8
20260507065016 38 0 1.0 3.0 0.00 0.00 0.00 68 1013.7
20260507064535 38 312 1.0 3.0 0.00 0.00 0.00 67 1013.7
20260507064015 38 312 1.0 3.0 0.00 0.00 0.00 67 1013.8
20260507063513 39 312 1.0 3.0 0.00 0.00 0.00 67 1013.9
20260507063035 39 312 0.0 3.0 0.00 0.00 0.00 66 1013.8
20260507062511 39 312 0.0 4.0 0.00 0.00 0.00 66 1013.8
20260507062016 39 312 1.0 4.0 0.00 0.00 0.00 65 1013.8
20260507061532 39 316 1.0 3.0 0.00 0.00 0.00 67 1013.9
20260507061020 39 316 1.0 4.0 0.00 0.00 0.00 67 1014.0
20260507060515 39 316 1.0 4.0 0.00 0.00 0.00 67 1014.0
20260507060034 39 316 1.0 3.0 0.00 0.00 0.00 67 1014.1
20260507055513 39 316 1.0 4.0 0.00 0.00 0.00 68 1014.1
20260507055014 39 316 1.0 4.0 0.00 0.00 0.00 68 1014.2
20260507054533 38 316 1.0 3.0 0.00 0.00 0.00 69 1014.2
20260507054013 38 316 1.0 3.0 0.00 0.00 0.00 68 1014.2
20260507053514 38 316 0.0 2.0 0.00 0.00 0.00 68 1014.0
20260507053032 38 316 0.0 3.0 0.00 0.00 0.00 69 1014.1
20260507052513 38 0 0.0 3.0 0.00 0.00 0.00 70 1014.0
20260507052016 38 0 0.0 2.0 0.00 0.00 0.00 70 1014.1
20260507051532 39 0 0.0 2.0 0.00 0.00 0.00 70 1014.2
20260507051015 39 316 0.0 3.0 0.00 0.00 0.00 70 1014.1
20260507050514 39 316 1.0 3.0 0.00 0.00 0.00 70 1014.3
20260507050035 39 316 0.0 3.0 0.00 0.00 0.00 69 1014.3
20260507045515 39 316 1.0 3.0 0.00 0.00 0.00 69 1014.4
20260507045015 39 316 1.0 3.0 0.00 0.00 0.00 68 1014.3
20260507044532 39 316 1.0 3.0 0.00 0.00 0.00 67 1014.3
20260507044015 39 316 0.0 3.0 0.00 0.00 0.00 66 1014.3
20260507043514 39 0 1.0 3.0 0.00 0.00 0.00 66 1014.3
20260507043031 39 316 1.0 3.0 0.00 0.00 0.00 66 1014.4
20260507042513 39 316 1.0 3.0 0.00 0.00 0.00 65 1014.4
20260507042021 39 316 1.0 3.0 0.00 0.00 0.00 65 1014.4
20260507041530 40 316 1.0 3.0 0.00 0.00 0.00 65 1014.4
20260507041015 40 316 1.0 3.0 0.00 0.00 0.00 63 1014.5
20260507040514 40 316 1.0 3.0 0.00 0.00 0.00 62 1014.6
20260507040041 40 316 1.0 3.0 0.00 0.00 0.00 62 1014.6
20260507035518 40 316 1.0 3.0 0.00 0.00 0.00 61 1014.6
20260507035014 40 316 1.0 3.0 0.00 0.00 0.00 61 1014.6
20260507034541 40 316 1.0 3.0 0.00 0.00 0.00 61 1014.7
20260507034020 40 316 1.0 3.0 0.00 0.00 0.00 61 1014.7
20260507033513 40 0 0.0 2.0 0.00 0.00 0.00 61 1014.6
20260507033044 40 316 0.0 2.0 0.00 0.00 0.00 59 1014.7
20260507032516 41 316 0.0 2.0 0.00 0.00 0.00 59 1014.8
20260507032017 41 316 1.0 2.0 0.00 0.00 0.00 59 1014.8
20260507031545 41 316 1.0 2.0 0.00 0.00 0.00 59 1014.9
20260507031016 41 316 1.0 2.0 0.00 0.00 0.00 59 1014.9
20260507030516 41 316 1.0 2.0 0.00 0.00 0.00 59 1014.9
20260507030033 41 316 1.0 2.0 0.00 0.00 0.00 59 1014.9
20260507025516 40 316 1.0 2.0 0.00 0.00 0.00 59 1014.9
20260507025018 40 316 1.0 2.0 0.00 0.00 0.00 60 1015.0
20260507024536 40 316 0.0 1.0 0.00 0.00 0.00 59 1015.0
20260507024013 40 0 0.0 0.0 0.00 0.00 0.00 59 1015.0
20260507023515 40 0 0.0 0.0 0.00 0.00 0.00 59 1015.0
20260507023034 40 0 0.0 0.0 0.00 0.00 0.00 59 1015.1
20260507022515 40 0 0.0 1.0 0.00 0.00 0.00 59 1015.1
20260507022014 40 0 0.0 1.0 0.00 0.00 0.00 59 1015.1
20260507021536 41 0 0.0 2.0 0.00 0.00 0.00 59 1015.2
20260507021015 41 0 0.0 3.0 0.00 0.00 0.00 59 1015.1
20260507020515 41 316 1.0 3.0 0.00 0.00 0.00 60 1015.2
20260507020034 41 316 1.0 3.0 0.00 0.00 0.00 60 1015.3
20260507015516 41 0 0.0 3.0 0.00 0.00 0.00 60 1015.2
20260507015016 41 316 2.0 3.0 0.00 0.00 0.00 59 1015.2
20260507014542 41 316 1.0 3.0 0.00 0.00 0.00 59 1015.3
20260507014016 41 316 1.0 3.0 0.00 0.00 0.00 59 1015.3
20260507013513 41 316 1.0 4.0 0.00 0.00 0.00 59 1015.3
20260507013039 41 316 1.0 6.0 0.00 0.00 0.00 60 1015.2
20260507012515 41 311 1.0 6.0 0.00 0.00 0.00 59 1015.3
20260507012016 41 311 2.0 8.0 0.00 0.00 0.00 58 1015.2
20260507011539 41 319 3.0 8.0 0.00 0.00 0.00 59 1015.2
20260507011013 41 294 2.0 6.0 0.00 0.00 0.00 59 1015.2
20260507010516 41 350 2.0 6.0 0.00 0.00 0.00 60 1015.2
20260507010041 41 315 1.0 5.0 0.00 0.00 0.00 59 1015.1
20260507005514 41 325 1.0 8.0 0.00 0.00 0.00 59 1015.1
20260507005019 41 330 2.0 9.0 0.00 0.00 0.00 58 1015.1
20260507004532 41 336 5.0 9.0 0.00 0.00 0.00 58 1015.2
20260507004016 41 304 4.0 9.0 0.00 0.00 0.00 58 1015.2
20260507003515 42 317 3.0 9.0 0.00 0.00 0.00 57 1015.2
20260507003033 42 292 4.0 11.0 0.00 0.00 0.00 57 1015.2
20260507002515 42 299 6.0 12.0 0.00 0.00 0.00 56 1015.3
20260507002016 42 279 7.0 12.0 0.00 0.00 0.00 57 1015.3
20260507001602 42 303 5.0 14.0 0.00 0.00 0.00 56 1015.3
20260507001012 42 296 7.0 15.0 0.00 0.00 0.00 56 1015.2
20260507000514 42 318 6.0 15.0 0.00 0.00 0.00 57 1015.3
20260507000035 42 291 3.0 10.0 0.00 0.00 0.00 57 1015.3
20260506235516 42 310 4.0 10.0 0.00 0.00 0.00 57 1015.3
20260506235015 42 290 5.0 12.0 0.00 0.00 0.00 56 1015.1
20260506234534 42 304 5.0 12.0 0.00 0.00 0.00 56 1015.2
20260506234013 42 277 7.0 13.0 0.00 0.00 0.00 55 1015.1
20260506233513 43 327 8.0 14.0 0.00 0.00 0.00 56 1015.1
20260506233032 42 274 6.0 14.0 0.00 0.00 0.00 56 1015.2
20260506232513 42 273 7.0 13.0 0.00 0.00 0.00 55 1015.2
20260506232013 43 339 4.0 12.0 0.00 0.00 0.00 56 1015.3
20260506231535 43 302 6.0 12.0 0.00 0.00 0.00 56 1015.3
20260506231013 43 278 5.0 11.0 0.00 0.00 0.00 57 1015.3
20260506230515 43 355 6.0 14.0 0.00 0.00 0.00 55 1015.2
20260506230036 42 281 8.0 14.0 0.00 0.00 0.00 55 1015.3
20260506225516 42 288 6.0 12.0 0.00 0.00 0.00 56 1015.3
20260506225023 42 337 5.0 12.0 0.00 0.00 0.00 56 1015.4
20260506224534 42 316 4.0 12.0 0.00 0.00 0.00 57 1015.4
20260506224014 43 338 6.0 12.0 0.00 0.00 0.00 56 1015.4
20260506223515 43 313 3.0 11.0 0.00 0.00 0.00 55 1015.4
20260506223033 43 271 6.0 11.0 0.00 0.00 0.00 56 1015.4
20260506222514 43 302 5.0 11.0 0.00 0.00 0.00 55 1015.4
20260506222016 43 302 3.0 10.0 0.00 0.00 0.00 56 1015.5
20260506221534 43 313 3.0 10.0 0.00 0.00 0.00 57 1015.5
20260506221013 42 274 4.0 9.0 0.00 0.00 0.00 57 1015.5
20260506220513 42 302 5.0 9.0 0.00 0.00 0.00 58 1015.7
20260506220032 42 332 5.0 10.0 0.00 0.00 0.00 57 1015.6
20260506215513 42 250 4.0 10.0 0.00 0.00 0.00 56 1015.7
20260506215015 42 276 5.0 11.0 0.00 0.00 0.00 56 1015.6
20260506214533 42 250 6.0 11.0 0.00 0.00 0.00 56 1015.6
20260506214018 42 279 7.0 11.0 0.00 0.00 0.00 56 1015.7
20260506213517 42 266 5.0 14.0 0.00 0.00 0.00 56 1015.7
20260506213032 42 305 8.0 14.0 0.00 0.00 0.00 55 1015.8
20260506212515 42 291 5.0 11.0 0.00 0.00 0.00 56 1015.8
20260506212017 42 246 6.0 10.0 0.00 0.00 0.00 55 1015.7
20260506211531 42 285 6.0 10.0 0.00 0.00 0.00 55 1015.8
20260506211014 42 261 6.0 10.0 0.00 0.00 0.00 56 1015.7
20260506210514 42 261 5.0 16.0 0.00 0.00 0.00 58 1015.7
20260506210035 42 282 5.0 16.0 0.00 0.00 0.00 56 1015.7
20260506205513 42 265 7.0 16.0 0.00 0.00 0.00 57 1015.8
20260506205014 42 344 4.0 13.0 0.00 0.00 0.00 57 1015.7
20260506204535 42 284 5.0 13.0 0.00 0.00 0.00 56 1015.8
20260506204014 42 250 7.0 13.0 0.00 0.00 0.00 55 1015.8
20260506203513 42 256 6.0 11.0 0.00 0.00 0.00 56 1015.8
20260506203038 42 312 3.0 12.0 0.00 0.00 0.00 56 1015.8
20260506202513 42 286 5.0 12.0 0.00 0.00 0.00 57 1015.9
20260506202014 42 316 6.0 12.0 0.00 0.00 0.00 58 1015.8
20260506201538 42 288 6.0 13.0 0.00 0.00 0.00 56 1015.8
20260506201013 42 289 7.0 13.0 0.00 0.00 0.00 56 1015.8
20260506200515 42 321 4.0 9.0 0.00 0.00 0.00 56 1015.8
20260506200038 42 328 5.0 13.0 0.00 0.00 0.00 56 1015.8
20260506195520 42 292 5.0 13.0 0.00 0.00 0.00 56 1015.8
20260506195014 42 279 6.0 13.0 0.00 0.00 0.00 55 1015.8
20260506194530 42 271 7.0 13.0 0.00 0.00 0.00 56 1015.8
20260506194018 42 296 4.0 13.0 0.00 0.00 0.00 57 1015.8
20260506193514 41 264 6.0 13.0 0.00 0.00 0.00 56 1015.8
20260506193032 41 312 7.0 13.0 0.00 0.00 0.00 56 1015.9
20260506192513 41 318 7.0 13.0 0.00 0.00 0.00 57 1015.8
20260506192019 41 281 5.0 12.0 0.00 0.00 0.00 55 1015.9
20260506191535 41 300 4.0 14.0 0.00 0.00 0.00 58 1015.9
20260506191016 41 272 7.0 14.0 0.00 0.00 0.00 57 1015.9
20260506190514 41 296 5.0 13.0 0.00 0.00 0.00 58 1015.9
20260506190038 41 271 6.0 15.0 0.00 0.00 0.00 57 1015.9
20260506185516 41 322 6.0 15.0 0.00 0.00 0.00 56 1015.9
20260506185015 42 315 6.0 13.0 0.00 0.00 0.00 57 1016.0
20260506184543 42 306 6.0 14.0 0.00 0.00 0.00 55 1015.8
20260506184020 41 269 8.0 15.0 0.00 0.00 0.00 57 1015.9
20260506183514 40 265 8.0 17.0 0.00 0.00 0.00 58 1015.8
20260506183030 40 277 6.0 17.0 0.00 0.00 0.00 59 1015.9
20260506182514 40 300 8.0 17.0 0.00 0.00 0.00 58 1015.9
20260506182014 40 293 9.0 15.0 0.00 0.00 0.00 57 1015.9
20260506181534 40 296 8.0 18.0 0.00 0.00 0.00 55 1015.8
20260506181015 40 309 7.0 18.0 0.00 0.00 0.00 58 1015.9
20260506180514 40 301 9.0 16.0 0.00 0.00 0.00 56 1015.9
20260506180032 41 277 7.0 16.0 0.00 0.00 0.00 57 1015.9
20260506175513 41 319 6.0 13.0 0.00 0.00 0.00 55 1015.9
20260506175016 41 290 8.0 16.0 0.00 0.00 0.00 56 1015.8
20260506174534 41 294 7.0 16.0 0.00 0.00 0.00 55 1015.8
20260506174015 41 278 9.0 16.0 0.00 0.00 0.00 55 1016.0
20260506173516 41 336 9.0 17.0 0.00 0.00 0.00 55 1015.8
20260506173042 41 305 8.0 17.0 0.00 0.00 0.00 57 1015.9
20260506172513 41 309 5.0 16.0 0.00 0.00 0.00 56 1015.9
20260506172016 41 283 9.0 16.0 0.00 0.00 0.00 55 1015.9
20260506171532 41 300 6.0 19.0 0.00 0.00 0.00 55 1015.8
20260506171014 41 289 9.0 19.0 0.00 0.00 0.00 55 1015.9
20260506170515 42 267 9.0 19.0 0.00 0.00 0.00 53 1015.8
20260506170034 42 246 5.0 13.0 0.00 0.00 0.00 54 1015.8
20260506165514 42 294 6.0 14.0 0.00 0.00 0.00 55 1015.8
20260506165014 41 255 7.0 19.0 0.00 0.00 0.00 57 1015.9
20260506164534 41 309 10.0 19.0 0.00 0.00 0.00 55 1015.8
20260506164014 41 298 10.0 19.0 0.00 0.00 0.00 55 1015.8
20260506163517 40 300 8.0 15.0 0.00 0.00 0.00 56 1015.8
20260506163037 40 5 8.0 14.0 0.00 0.00 0.00 56 1015.8
20260506162517 41 305 7.0 14.0 0.00 0.00 0.00 56 1015.8
20260506162016 41 298 6.0 12.0 0.00 0.00 0.00 58 1015.7
20260506161532 41 338 6.0 16.0 0.00 0.00 0.00 57 1015.7
20260506161013 40 264 8.0 16.0 0.00 0.00 0.00 60 1015.8
20260506160514 40 300 5.0 14.0 0.00 0.00 0.00 58 1015.7
20260506160032 40 289 5.0 15.0 0.00 0.00 0.00 59 1015.7
20260506155513 40 298 6.0 15.0 0.00 0.00 0.00 58 1015.7
20260506155015 40 28 6.0 14.0 0.00 0.00 0.00 58 1015.6
20260506154534 40 299 5.0 15.0 0.00 0.00 0.00 58 1015.7
20260506154018 40 322 6.0 15.0 0.00 0.00 0.00 59 1015.7
20260506153514 41 304 9.0 16.0 0.00 0.00 0.00 57 1015.6
20260506153030 41 339 5.0 16.0 0.00 0.00 0.00 59 1015.6
20260506152514 41 293 7.0 16.0 0.00 0.00 0.00 58 1015.6
20260506152015 41 329 7.0 13.0 0.00 0.00 0.00 60 1015.6
20260506151534 42 265 7.0 12.0 0.00 0.00 0.00 60 1015.6
20260506151018 41 298 5.0 12.0 0.00 0.00 0.00 60 1015.6
20260506150516 41 281 7.0 12.0 0.00 0.00 0.00 60 1015.7
20260506150035 41 313 5.0 12.0 0.00 0.00 0.00 59 1015.8
20260506145514 40 314 6.0 13.0 0.00 0.00 0.00 60 1015.7
20260506145014 40 280 5.0 15.0 0.00 0.00 0.00 63 1015.8
20260506144537 40 296 7.0 15.0 0.00 0.00 0.00 63 1015.8
20260506144015 40 279 8.0 14.0 0.00 0.00 0.00 64 1015.8
20260506143517 40 276 9.0 14.0 0.00 0.00 0.00 62 1015.8
20260506143036 40 340 7.0 13.0 0.00 0.00 0.00 65 1015.7
20260506142519 39 321 4.0 13.0 0.00 0.00 0.00 68 1015.7
20260506142015 39 313 6.0 13.0 0.00 0.00 0.00 67 1015.7
20260506141533 39 309 4.0 11.0 0.00 0.00 0.00 67 1015.9
20260506141018 38 300 4.0 11.0 0.00 0.00 0.00 69 1015.8
20260506140515 38 355 4.0 11.0 0.00 0.00 0.00 67 1015.8
20260506140031 38 325 4.0 11.0 0.00 0.00 0.00 67 1015.8
20260506135513 38 298 5.0 11.0 0.00 0.00 0.00 69 1015.7
20260506135012 38 300 5.0 11.0 0.00 0.00 0.00 69 1015.6
20260506134532 38 330 3.0 9.0 0.00 0.00 0.00 70 1015.6
20260506134015 38 266 4.0 9.0 0.00 0.00 0.00 70 1015.5
20260506133518 38 326 4.0 9.0 0.00 0.00 0.00 70 1015.5
20260506133034 37 290 3.0 9.0 0.00 0.00 0.00 70 1015.4
20260506132522 37 305 2.0 8.0 0.00 0.00 0.00 71 1015.4
20260506132013 37 331 4.0 8.0 0.00 0.00 0.00 70 1015.3
20260506131544 37 296 1.0 5.0 0.00 0.00 0.00 73 1015.4
20260506131015 37 296 3.0 8.0 0.00 0.00 0.00 73 1015.3
20260506130514 36 321 3.0 8.0 0.00 0.00 0.00 73 1015.3
20260506130047 36 317 2.0 6.0 0.00 0.00 0.00 73 1015.2
20260506125515 36 306 2.0 5.0 0.00 0.00 0.00 72 1015.0
20260506125013 36 306 3.0 6.0 0.00 0.00 0.00 72 1015.0
20260506124533 36 300 3.0 6.0 0.00 0.00 0.00 72 1015.0
20260506124014 35 312 2.0 5.0 0.00 0.00 0.00 71 1015.0
20260506123515 35 296 2.0 5.0 0.00 0.00 0.00 73 1015.0
20260506123031 35 296 2.0 5.0 0.00 0.00 0.00 72 1015.0
20260506122513 35 296 3.0 5.0 0.00 0.00 0.00 73 1015.1
20260506122013 34 296 3.0 5.0 0.00 0.00 0.00 73 1015.0
20260506121535 34 296 3.0 5.0 0.00 0.00 0.00 73 1014.9